Wetbulb
39.06 33.49 30.42 33.16 34.72 35.61 34.84 33.23 31.95 34.61 39.02 37.43 35.85 32.55 34.95 39.12 38.73 38.84 39.87 39.53 39.31 39.20 40.12 39.98 39.32 38.86 38.05 37.81 37.76 38.28 38.25 38.98 40.03 40.55 40.14 41.53 42.61 44.94 47.26 49.16 51.38 54.60 57.84 58.68
33.64 30.67 37.51 39.11 38.68 36.87 35.73 33.69 32.97 35.29 38.75 37.07 33.69 33.71 33.75 37.89 38.31 38.45 37.38 36.39 36.36 36.32 36.72 37.34 36.77 35.87 35.39 35.18 35.37 36.19 36.27 36.69 37.40 38.79 38.96 40.05 40.75 43.00 44.68 47.32 49.36 51.65 53.23 54.63
31.55 35.55 40.83 38.97 36.87 35.70 35.68 33.57 32.60 32.44 34.96 33.64 31.91 31.45 32.09 38.20 39.19 38.34 36.92 36.35 35.47 34.45 33.55 34.02 34.13 33.44 33.73 33.17 33.12 34.41 34.53 34.90 36.41 37.05 36.61 37.27 38.25 39.41 40.83 43.44 44.92 47.62 49.31 50.02
35.36 39.97 38.88 37.79 36.48 36.50 30.83 36.73 35.78 33.62 29.86 24.06 31.55 21.50 30.01 34.12 34.17 34.80 34.17 33.03 32.38 32.44 33.06 33.04 32.45 32.11 31.95 32.07 32.69 33.12 33.51 33.96 35.63 35.32 34.45 34.23 33.86 33.50 36.48 38.76 42.26 43.74 46.57 48.08
34.40 35.65 34.84 33.93 35.37 37.25 33.65 37.20 34.35 32.67 27.58 26.28 26.33 22.98 27.56 34.02 30.94 31.39 32.28 32.73 31.62 31.67 31.55 31.08 31.34 31.49 31.54 31.82 31.35 32.09 32.77 33.43 34.08 34.44 33.78 33.15 32.70 34.09 35.61 37.15 38.71 41.21 43.13 44.73
36.28 38.47 36.51 35.43 38.13 37.47 37.88 33.98 32.17 30.03 27.21 20.67 27.40 25.22 24.23 28.12 30.44 31.51 32.48 32.19 31.73 31.50 31.04 31.64 31.64 31.57 30.88 31.63 31.98 32.13 32.46 32.72 33.66 33.03 32.89 32.18 31.40 31.95 32.93 34.76 35.81 37.74 40.52 42.68
33.00 34.39 37.48 38.40 32.97 36.03 33.35 28.00 19.69 18.76 19.08 19.21 29.58 25.43 27.22 30.58 32.55 31.67 31.06 30.95 30.85 30.72 30.05 29.56 28.94 28.88 29.86 30.23 31.33 32.46 33.00 32.08 32.56 32.77 32.48 32.30 32.54 32.53 32.62 33.85 35.67 36.82 38.18 39.82
25.83 24.68 33.40 37.61 33.86 31.57 30.71 29.27 21.88 17.75 18.04 19.46 29.22 22.06 25.96 32.52 34.25 34.53 33.34 31.46 30.48 29.29 28.86 28.69 28.75 28.76 29.39 30.40 31.21 32.61 32.26 31.67 31.96 31.99 32.11 33.63 34.83 35.18 35.80 36.56 37.52 38.25 39.50 40.34
27.11 28.01 35.58 36.73 36.57 35.32 31.12 25.47 31.90 25.15 24.44 19.67 23.00 27.05 31.78 32.57 31.81 32.58 31.85 30.40 28.83 27.99 27.47 27.64 28.27 29.12 29.50 29.83 31.11 32.90 31.39 31.62 31.66 31.92 33.36 34.03 35.88 36.66 37.53 38.37 39.04 39.54 40.95 42.22
32.52 24.92 33.58 35.32 36.60 35.00 32.45 34.21 23.73 24.29 18.34 16.16 20.48 22.02 22.23 26.68 29.26 30.74 29.66 28.05 27.92 27.25 26.63 27.08 27.66 28.51 29.27 30.59 30.66 33.07 31.74 30.87 31.68 32.35 33.56 34.62 35.50 36.37 37.83 39.48 40.02 41.55 43.52 44.20
31.91 28.51 28.44 33.01 30.21 28.32 29.09 25.85 27.54 26.77 24.41 17.15 13.58 13.38 23.06 24.53 27.94 27.03 28.10 28.54 27.31 25.77 25.30 26.22 27.11 27.33 28.07 29.58 29.44 31.54 30.53 30.54 30.92 31.80 33.28 34.17 34.67 35.54 36.42 36.86 37.74 38.50 40.22 41.85
32.31 27.50 22.05 26.69 33.59 34.26 31.51 29.03 28.74 20.37 21.62 22.63 21.50 18.92 30.65 28.82 29.25 28.62 28.21 29.50 29.06 27.55 25.32 25.68 26.05 25.92 26.73 27.48 27.91 29.24 29.38 29.45 30.05 31.50 32.14 33.12 34.75 34.32 34.28 34.53 35.80 37.10 36.95 38.03
32.52 25.27 18.67 22.98 26.99 32.23 29.15 31.55 32.22 30.08 25.99 21.03 14.33 15.82 30.23 30.46 27.40 28.00 26.99 27.77 27.07 26.96 25.74 26.19 25.52 25.41 25.62 26.27 26.08 27.25 27.93 28.18 28.60 29.87 29.93 30.95 32.55 32.95 32.67 32.88 33.69 34.82 35.20 35.42
35.25 27.09 23.01 20.46 23.49 27.40 24.01 27.74 28.74 28.20 20.19 22.70 19.49 15.74 27.73 28.90 27.48 27.75 27.32 26.91 24.53 25.52 25.30 25.34 24.17 24.35 24.89 25.57 25.10 25.78 26.71 27.78 27.30 28.61 27.73 28.31 29.43 31.87 31.84 32.10 31.87 31.92 32.97 33.26
30.08 23.81 21.61 25.50 28.54 28.84 26.19 25.65 27.07 22.65 26.82 22.71 19.95 22.83 23.85 27.64 26.32 27.45 25.79 26.29 25.09 24.40 23.56 23.06 22.81 23.18 23.82 24.54 24.55 25.54 26.27 26.63 26.21 26.61 25.83 25.59 27.61 30.00 31.54 30.58 30.08 30.37 30.03 31.05
29.98 21.91 19.02 13.64 28.43 27.29 23.93 26.66 26.83 26.55 26.41 22.92 22.23 25.10 27.37 27.50 26.90 25.91 25.68 24.89 23.66 22.40 22.23 22.10 22.23 22.46 22.82 24.00 23.98 24.95 25.52 25.59 25.21 24.45 24.03 24.48 25.43 26.85 28.03 29.65 28.68 27.89 27.95 28.18
25.22 21.66 16.20 14.88 26.73 27.19 22.37 24.37 24.62 23.92 27.24 27.66 23.37 27.02 26.74 25.65 26.11 24.98 24.28 24.13 22.37 21.39 21.14 21.22 21.49 21.85 22.49 23.10 24.42 23.48 24.78 25.73 23.75 22.95 23.16 22.28 22.98 23.16 25.24 25.52 26.33 25.39 24.54 24.99
25.34 23.74 22.83 20.43 22.20 15.57 24.09 31.32 31.15 28.80 30.00 29.28 27.10 26.86 28.10 27.56 25.42 25.23 25.33 22.94 21.75 20.82 20.54 20.87 21.60 22.21 22.63 23.34 23.97 24.39 24.91 24.91 24.27 22.77 22.31 21.98 21.09 20.52 21.94 23.50 22.44 23.03 22.89 22.57
31.24 25.70 20.90 17.92 20.45 24.03 26.99 29.14 28.69 26.40 26.43 29.96 27.47 27.39 25.48 24.78 24.09 22.44 23.69 23.20 21.47 20.94 21.16 21.15 21.82 22.88 22.57 22.46 23.75 23.48 23.46 23.84 23.97 22.72 22.28 22.39 21.18 19.58 19.32 19.45 21.14 21.42 21.06 20.69
30.83 29.49 23.08 22.75 19.89 17.23 25.20 32.72 34.76 33.10 18.86 30.33 29.44 25.59 24.31 23.87 21.33 20.45 22.63 22.20 21.15 21.40 21.34 20.50 20.74 22.26 20.47 20.30 22.35 19.58 20.19 21.74 21.11 22.32 22.43 22.71 22.37 20.86 19.24 18.60 18.98 19.81 20.46 20.28
26.55 26.47 22.98 22.92 21.76 24.57 31.42 33.16 35.08 18.33 21.36 31.02 28.87 26.67 24.91 22.85 25.52 23.90 23.40 21.37 21.82 20.29 18.47 18.90 16.98 15.03 15.05 16.75 18.86 17.78 17.87 17.86 16.95 19.24 21.88 21.68 21.64 21.26 20.83 20.46 20.07 19.58 19.59 19.72
27.19 24.78 24.41 25.60 21.92 19.15 31.98 32.05 25.81 27.62 30.61 31.07 29.35 28.29 25.26 21.66 21.97 20.80 20.55 19.91 20.52 19.11 17.30 14.57 14.08 12.66 14.82 16.12 15.46 16.56 16.86 15.29 15.08 14.03 14.52 16.55 17.92 19.93 19.75 19.27 19.67 19.43 19.13 18.78
26.56 28.58 23.66 25.19 23.92 27.97 29.87 29.58 31.61 32.66 29.66 29.54 29.54 28.41 23.55 20.66 19.54 20.53 21.00 22.25 21.70 19.25 16.95 16.21 11.22 12.72 13.36 15.04 16.11 16.65 16.36 16.44 16.86 17.84 15.08 9.38 13.62 16.43 16.19 17.43 17.91 17.77 17.75 17.62
32.09 33.78 27.55 26.37 26.96 27.59 29.41 30.40 32.16 31.09 28.62 28.66 29.03 26.32 24.54 21.46 20.65 20.28 21.94 22.09 22.05 21.04 19.08 18.69 17.40 14.12 13.77 13.61 17.25 16.70 19.09 19.05 18.60 19.15 19.00 19.82 16.98 16.63 15.24 17.76 19.70 18.70 17.50 16.60
29.28 30.75 27.01 24.84 24.27 27.57 28.50 28.30 28.71 27.29 26.92 26.54 27.07 26.27 24.19 22.57 21.46 21.40 20.65 21.21 19.98 19.89 21.14 20.34 19.09 18.38 16.94 18.33 17.13 16.99 19.50 20.74 21.73 19.73 19.44 19.46 20.51 18.16 18.43 20.55 20.91 20.02 20.30 19.39
29.68 26.32 23.58 22.47 27.39 27.08 23.46 27.48 28.86 26.62 25.34 25.77 24.61 23.86 24.58 23.87 22.46 22.44 21.49 22.02 21.69 20.97 20.74 18.97 18.39 17.88 17.57 18.07 18.38 19.97 21.90 21.28 20.47 21.41 19.95 18.39 18.58 18.69 18.56 16.29 16.36 23.13 23.03 22.70
MSLP
1015.20 1016.11 1016.15 1015.91 1015.96 1015.54 1015.50 1015.22 1014.78 1013.77 1012.63 1012.52 1012.36 1012.63 1012.77 1012.83 1013.58 1014.53 1015.75 1016.74 1017.43 1018.07 1018.80 1018.83 1018.83 1018.86 1018.57 1018.23 1017.93 1017.76 1017.17 1016.65 1016.11 1015.31 1014.65 1013.37 1012.95 1012.35 1011.93 1011.70 1011.51 1011.40 1010.98 1010.30
1015.94 1015.96 1015.18 1015.58 1015.63 1015.58 1015.31 1014.99 1014.33 1013.53 1012.79 1012.80 1012.81 1012.61 1013.55 1014.24 1015.96 1016.61 1017.64 1018.55 1019.30 1019.56 1019.56 1019.56 1019.54 1019.51 1019.45 1019.35 1019.12 1018.52 1017.95 1017.32 1016.75 1016.26 1015.83 1015.48 1014.36 1012.99 1012.41 1011.69 1011.13 1011.24 1011.02 1010.55
1015.59 1014.82 1014.54 1015.08 1015.09 1015.05 1014.76 1014.39 1014.12 1014.13 1013.80 1013.53 1013.70 1013.53 1013.98 1015.91 1016.88 1018.03 1019.21 1020.03 1020.51 1020.82 1020.67 1020.51 1020.44 1020.61 1020.54 1020.28 1019.99 1019.34 1018.71 1018.04 1017.33 1016.92 1016.33 1015.48 1014.60 1013.31 1012.39 1011.75 1011.16 1010.69 1010.74 1010.62
1014.95 1014.04 1014.14 1014.32 1014.34 1014.20 1014.18 1013.95 1014.12 1014.54 1014.82 1015.22 1014.96 1015.27 1015.03 1016.44 1017.84 1018.91 1020.09 1020.82 1021.50 1021.68 1021.68 1021.53 1021.52 1021.43 1021.39 1021.14 1020.65 1019.98 1019.25 1018.52 1017.81 1017.50 1016.89 1016.23 1015.25 1014.10 1013.10 1012.45 1011.41 1010.64 1010.18 1009.95
1013.96 1013.62 1014.03 1014.02 1013.67 1013.51 1014.06 1014.13 1014.62 1015.11 1015.80 1016.08 1016.48 1017.20 1015.04 1016.69 1018.69 1020.00 1020.91 1021.58 1022.35 1022.61 1022.75 1022.56 1022.41 1022.17 1021.81 1021.48 1021.24 1020.52 1019.68 1019.06 1018.30 1017.55 1016.97 1016.18 1015.25 1014.52 1013.46 1012.46 1011.53 1010.75 1009.96 1009.76
1013.73 1013.53 1013.66 1013.17 1013.07 1013.38 1013.82 1014.50 1015.29 1015.86 1016.59 1016.95 1016.81 1017.58 1017.11 1018.46 1019.54 1020.59 1021.50 1022.22 1022.82 1023.26 1023.49 1023.47 1023.26 1022.77 1022.39 1021.84 1021.12 1020.18 1019.38 1018.60 1017.97 1017.33 1016.67 1015.95 1015.23 1014.42 1013.56 1012.45 1011.51 1010.74 1009.95 1009.38
1014.18 1013.64 1012.91 1012.97 1013.26 1013.46 1014.08 1015.48 1016.92 1017.43 1017.84 1017.50 1017.31 1018.07 1018.82 1019.62 1020.50 1021.17 1021.91 1022.85 1023.54 1023.94 1024.03 1023.88 1023.52 1023.15 1022.66 1021.89 1021.04 1020.12 1019.30 1018.45 1017.73 1016.95 1016.27 1015.61 1015.00 1014.31 1013.32 1012.33 1011.31 1010.37 1009.66 1009.09
1014.68 1014.04 1013.12 1012.88 1013.07 1013.47 1014.25 1015.45 1017.25 1017.70 1018.35 1018.31 1018.18 1018.72 1019.30 1020.37 1021.06 1021.54 1022.26 1023.11 1023.84 1024.32 1024.51 1024.35 1023.99 1023.48 1022.77 1022.06 1021.36 1020.44 1019.69 1018.69 1017.80 1017.09 1016.16 1015.23 1014.43 1013.57 1012.61 1011.77 1010.87 1009.95 1009.17 1008.51
1014.60 1014.25 1013.55 1013.06 1013.18 1013.83 1014.86 1015.77 1016.45 1017.66 1018.40 1019.05 1018.83 1019.78 1020.39 1020.78 1021.53 1022.03 1022.60 1023.46 1024.02 1024.63 1024.79 1024.76 1024.54 1024.09 1023.50 1022.81 1021.89 1021.04 1020.14 1019.13 1018.15 1017.23 1016.05 1014.98 1013.92 1012.80 1011.76 1010.77 1010.03 1009.40 1008.65 1007.91
1014.35 1014.73 1014.20 1013.76 1013.76 1014.24 1014.73 1015.73 1017.06 1018.32 1019.12 1019.25 1018.89 1019.71 1020.36 1021.35 1021.97 1022.50 1022.94 1023.80 1024.67 1025.05 1025.17 1025.23 1025.07 1024.55 1023.90 1023.17 1022.31 1021.38 1020.37 1019.47 1018.48 1017.39 1016.14 1014.86 1013.72 1012.61 1011.46 1010.39 1009.40 1008.54 1007.66 1007.22
1014.53 1015.20 1015.34 1014.72 1014.79 1015.13 1015.60 1016.29 1017.34 1018.18 1018.83 1019.46 1019.85 1020.18 1020.49 1021.42 1022.22 1022.85 1023.40 1024.05 1024.94 1025.31 1025.63 1025.68 1025.40 1024.86 1024.27 1023.54 1022.53 1021.48 1020.48 1019.37 1018.23 1017.22 1016.10 1014.92 1013.81 1012.69 1011.56 1010.64 1009.88 1009.10 1008.23 1007.40
1014.81 1015.89 1016.34 1016.11 1015.61 1015.56 1016.09 1016.66 1017.52 1018.40 1018.92 1019.39 1020.06 1020.03 1020.75 1021.71 1022.39 1023.01 1023.62 1024.21 1024.96 1025.79 1026.09 1026.08 1025.74 1025.22 1024.60 1023.75 1022.72 1021.52 1020.52 1019.61 1018.84 1017.92 1016.75 1015.50 1014.32 1013.24 1012.16 1011.31 1010.41 1009.57 1008.76 1008.00
1015.01 1016.34 1017.33 1017.05 1016.87 1016.43 1016.75 1017.33 1017.84 1018.41 1018.84 1019.40 1020.42 1020.64 1021.28 1021.97 1022.74 1023.23 1023.93 1024.82 1025.44 1025.84 1026.13 1026.20 1025.96 1025.48 1024.70 1023.96 1023.18 1022.26 1021.69 1020.85 1019.82 1018.68 1017.55 1016.29 1015.01 1014.05 1013.08 1012.27 1011.43 1010.47 1009.51 1008.74
1015.23 1016.89 1017.55 1017.81 1017.65 1017.65 1017.72 1017.63 1017.93 1018.60 1019.23 1019.10 1019.65 1020.43 1021.41 1021.88 1022.67 1023.45 1024.48 1025.34 1025.85 1026.18 1026.52 1026.55 1026.21 1025.78 1025.20 1024.53 1024.11 1023.42 1022.60 1021.75 1020.78 1019.61 1018.56 1017.33 1016.14 1015.07 1014.25 1013.55 1012.49 1011.64 1010.82 1009.92
1016.55 1017.89 1018.40 1018.44 1018.28 1018.08 1017.87 1017.76 1017.70 1018.38 1018.39 1018.99 1019.19 1019.97 1020.37 1021.23 1022.34 1023.52 1024.86 1025.51 1026.08 1026.54 1026.83 1026.80 1026.59 1026.32 1025.64 1025.08 1024.67 1024.07 1023.39 1022.59 1021.75 1020.70 1019.74 1018.69 1017.58 1016.47 1015.38 1014.61 1013.83 1013.08 1012.59 1012.06
1017.58 1018.59 1019.20 1019.50 1018.50 1018.23 1017.85 1017.01 1017.25 1017.32 1017.66 1018.15 1018.72 1019.74 1020.30 1021.57 1022.73 1024.11 1024.98 1025.61 1026.39 1026.86 1027.15 1027.19 1027.10 1026.75 1026.24 1025.86 1025.42 1024.92 1024.10 1023.34 1022.58 1021.64 1021.03 1020.18 1018.91 1017.80 1016.93 1016.10 1015.37 1014.96 1014.70 1014.01
1017.94 1018.97 1020.04 1019.91 1018.96 1018.31 1017.45 1016.07 1016.23 1016.36 1016.49 1017.12 1018.11 1018.64 1020.49 1022.00 1023.06 1024.24 1025.15 1025.91 1026.64 1027.21 1027.59 1027.71 1027.72 1027.45 1027.11 1026.76 1026.27 1025.59 1024.83 1024.14 1023.37 1022.71 1021.98 1021.25 1020.42 1019.52 1018.67 1018.03 1017.35 1016.93 1016.27 1015.80
1017.75 1019.00 1019.84 1019.98 1019.23 1018.05 1015.88 1015.60 1015.65 1015.87 1015.99 1016.53 1017.81 1019.10 1020.51 1021.97 1023.59 1024.73 1025.52 1026.16 1026.87 1027.58 1028.02 1028.18 1028.20 1027.90 1027.60 1027.19 1026.72 1026.12 1025.38 1024.79 1024.25 1023.66 1023.01 1022.33 1021.72 1021.20 1020.45 1019.43 1018.81 1018.44 1018.13 1017.63
1016.54 1018.23 1019.41 1019.50 1018.82 1016.85 1015.61 1015.40 1015.59 1015.78 1016.16 1016.87 1018.23 1019.94 1021.47 1022.99 1024.31 1025.50 1026.04 1026.62 1027.33 1028.01 1028.36 1028.49 1028.54 1028.35 1028.01 1027.59 1027.25 1026.79 1026.24 1025.76 1025.13 1024.63 1024.08 1023.42 1023.00 1022.48 1021.83 1021.01 1020.59 1020.27 1019.73 1019.12
1016.50 1017.09 1018.44 1018.88 1018.29 1016.72 1015.32 1015.03 1015.18 1015.67 1016.34 1016.78 1017.92 1019.97 1021.51 1023.13 1024.19 1025.19 1026.16 1026.94 1027.78 1028.35 1028.55 1028.72 1028.85 1028.76 1028.43 1028.26 1027.82 1027.35 1026.90 1026.56 1026.32 1026.06 1025.53 1024.85 1024.20 1023.65 1023.24 1022.90 1022.29 1021.89 1021.27 1020.66
1016.88 1017.49 1017.63 1018.09 1017.83 1016.18 1014.91 1015.05 1015.49 1016.44 1016.94 1017.17 1018.23 1019.79 1021.55 1022.82 1023.37 1024.47 1026.14 1027.24 1027.98 1028.46 1028.76 1028.96 1029.22 1029.23 1029.09 1028.83 1028.39 1027.91 1027.58 1027.34 1027.33 1026.90 1026.35 1025.81 1025.39 1024.87 1024.44 1024.10 1023.56 1023.06 1022.48 1021.91
1015.59 1016.61 1016.97 1017.55 1017.66 1016.49 1015.13 1015.62 1016.04 1016.25 1016.73 1017.49 1018.73 1020.09 1021.77 1023.18 1024.13 1025.11 1026.42 1027.31 1027.99 1028.47 1028.97 1029.21 1029.42 1029.54 1029.43 1029.05 1028.88 1028.63 1028.25 1028.03 1027.60 1027.19 1026.84 1026.57 1026.26 1025.82 1025.49 1025.02 1024.62 1024.11 1023.55 1023.00
1015.14 1014.92 1015.85 1016.37 1016.11 1015.57 1015.55 1015.61 1015.78 1016.16 1017.14 1018.22 1019.11 1020.47 1021.88 1023.40 1024.55 1025.44 1026.43 1027.10 1027.83 1028.39 1028.92 1029.27 1029.70 1029.85 1029.82 1029.48 1029.07 1028.99 1028.69 1028.28 1027.94 1027.52 1027.29 1027.11 1026.82 1026.50 1026.15 1025.70 1025.35 1024.89 1024.46 1024.02
1014.74 1014.69 1015.29 1016.27 1016.14 1016.08 1016.06 1016.28 1016.49 1016.82 1017.60 1018.36 1019.11 1020.34 1021.77 1023.11 1024.49 1025.47 1026.29 1026.92 1027.60 1028.30 1028.89 1029.37 1029.65 1030.08 1030.16 1029.80 1029.24 1029.04 1028.74 1028.37 1028.16 1027.82 1027.67 1027.38 1027.30 1027.02 1026.69 1026.32 1025.97 1025.52 1025.12 1024.74
1014.35 1014.74 1015.61 1016.23 1016.44 1016.69 1016.65 1016.76 1017.10 1017.84 1018.35 1019.01 1019.95 1020.57 1021.57 1022.83 1024.29 1025.20 1026.06 1026.75 1027.35 1027.98 1028.64 1029.24 1029.68 1029.89 1030.11 1029.98 1029.52 1029.19 1029.04 1028.81 1028.59 1028.46 1028.37 1028.12 1027.91 1027.59 1027.25 1026.78 1026.46 1026.36 1026.09 1025.84
1014.23 1014.70 1015.44 1015.57 1015.27 1015.83 1016.38 1016.85 1017.36 1018.13 1018.97 1019.51 1020.08 1021.36 1022.34 1022.78 1023.70 1024.84 1025.82 1026.43 1027.09 1027.82 1028.49 1029.17 1029.56 1029.89 1030.24 1030.26 1029.97 1029.88 1029.63 1029.40 1029.18 1029.00 1029.00 1028.90 1028.66 1028.36 1028.13 1027.92 1027.55 1026.98 1026.80 1026.55
Wind_Speed
2 4 8 10 9 7 7 9 9 6 6 6 7 2 2 4 10 13 13 13 13 13 11 13 14 15 15 16 17 16 16 15 12 10 12 9 11 11 8 9 11 8 8 12
2 6 14 9 10 8 10 13 11 6 4 5 5 11 4 9 9 14 14 13 12 11 13 15 16 17 16 16 16 16 16 16 12 9 9 7 10 7 10 10 9 8 8 11
8 9 5 9 11 12 12 10 5 3 4 4 4 9 1 11 15 16 14 12 13 13 14 15 17 16 15 16 17 15 16 16 13 13 10 9 10 7 7 9 10 9 11 13
8 12 16 15 10 7 4 3 0 3 5 3 4 8 6 9 12 13 11 11 10 12 12 13 14 14 14 13 13 14 15 14 13 14 11 13 10 13 11 11 12 13 12 12
9 3 1 3 5 2 4 1 3 2 3 4 2 3 6 10 7 8 8 10 9 9 11 12 13 14 13 12 11 11 12 12 13 12 12 11 12 11 11 12 15 14 13 11
9 2 4 6 4 4 5 4 6 4 3 4 3 7 6 4 3 5 7 9 10 10 10 10 12 12 12 13 14 14 15 15 14 14 14 13 14 15 13 13 12 11 11 9
4 6 9 5 5 4 4 6 4 5 2 7 3 3 1 5 7 8 7 7 7 8 9 10 13 13 14 15 18 17 18 17 16 17 17 16 15 15 17 15 12 13 11 10
3 6 2 2 3 8 5 8 7 6 4 5 7 5 4 7 7 7 8 7 8 8 9 11 13 13 16 19 19 17 17 17 19 18 18 16 15 10 11 13 12 11 11 12
5 5 1 4 2 4 1 2 4 1 0 3 5 3 4 6 4 4 5 7 9 8 10 12 13 14 16 17 17 15 16 16 18 18 15 15 14 14 13 16 14 11 13 12
4 2 3 1 4 3 5 5 2 2 4 8 4 4 5 5 1 3 5 6 6 8 11 11 12 13 13 15 15 13 14 16 15 16 15 13 14 13 13 11 13 12 11 12
4 4 3 3 3 4 2 1 1 3 4 5 3 7 5 7 5 3 4 6 4 8 8 10 11 11 12 12 15 13 15 16 17 18 16 16 14 14 12 11 11 12 12 13
3 5 2 6 5 4 3 4 6 5 6 4 7 10 2 6 6 5 5 5 7 6 6 7 8 9 12 13 15 16 17 19 18 17 16 16 13 14 14 14 14 13 13 13
7 1 2 7 5 4 4 0 2 3 2 7 6 7 5 5 6 5 5 4 5 6 7 7 8 10 12 14 16 17 17 17 18 17 17 17 15 15 15 15 15 15 15 16
8 4 7 8 5 3 3 5 5 4 2 4 7 4 10 10 9 7 4 4 3 4 6 7 9 11 12 13 14 14 15 16 17 16 17 17 18 14 16 15 17 18 17 18
5 5 3 3 4 4 6 11 13 8 12 7 6 7 8 13 9 7 5 4 3 4 7 9 10 10 11 13 14 14 14 15 15 15 17 18 17 16 15 18 18 19 19 18
2 2 4 5 7 8 13 18 15 16 11 7 4 6 5 8 10 8 7 6 4 4 7 9 10 11 13 13 13 13 13 14 14 14 15 16 17 17 17 16 19 19 18 19
6 5 4 5 4 8 9 11 11 4 7 7 9 7 14 11 11 9 8 7 5 5 5 7 8 9 9 10 11 11 12 12 13 14 14 16 16 17 18 17 17 18 19 19
7 6 4 3 3 5 7 3 4 6 2 4 6 14 13 11 8 8 6 8 7 5 5 6 6 8 8 8 9 9 11 12 14 14 14 15 15 15 15 16 18 17 16 17
6 5 3 3 4 7 3 4 4 4 5 8 13 14 13 13 11 4 7 7 7 5 4 2 3 4 6 8 8 8 9 11 13 16 15 15 15 14 16 16 16 14 14 15
6 4 5 3 4 5 4 2 4 2 6 12 14 17 18 14 6 4 10 9 8 5 2 3 4 4 5 7 6 6 8 10 12 11 12 13 14 14 14 14 13 12 11 13
5 2 10 6 4 8 3 5 4 5 6 12 16 17 17 7 1 13 13 10 8 5 4 2 3 2 3 5 5 6 7 10 6 6 9 11 12 12 12 11 12 11 12 12
8 8 5 5 4 11 2 4 6 4 4 12 11 15 12 10 13 14 12 11 8 6 3 2 4 4 5 5 4 6 8 6 5 5 6 8 8 8 8 11 11 12 11 12
5 8 6 8 7 1 2 3 2 4 6 6 12 13 15 15 10 13 12 11 8 6 4 3 4 4 5 4 5 8 6 5 6 7 6 4 6 7 7 9 11 10 12 11
3 3 3 3 4 4 3 2 3 3 4 6 9 18 17 14 14 12 10 9 7 7 4 4 6 5 5 5 7 5 7 6 6 10 10 9 7 7 6 6 8 10 12 11
5 5 5 3 2 1 5 4 6 8 10 12 11 14 15 18 14 12 9 8 6 7 6 5 6 6 5 5 6 6 6 7 7 7 7 7 7 7 8 7 6 8 12 15
4 7 6 7 8 4 4 8 11 12 9 12 15 12 12 14 16 14 10 9 8 7 9 7 7 6 5 5 7 7 6 6 6 8 7 6 6 6 6 6 7 19 22 23
Wind_Direction
220 121 227 225 214 230 276 278 268 254 266 339 296 241 260 324 34 46 61 64 63 55 46 43 30 25 20 21 14 7 1 4 360 355 347 341 341 332 322 324 321 313 324 315
325 230 240 235 249 236 248 261 265 255 282 317 313 304 158 81 66 79 71 56 48 37 29 26 25 18 14 7 3 358 355 353 353 349 343 328 323 313 313 309 309 323 321 329
200 237 276 227 253 256 263 249 266 279 311 320 325 289 57 75 91 78 67 63 50 35 24 16 14 10 4 0 352 349 346 342 340 346 330 321 306 306 315 316 312 313 321 315
246 241 231 255 250 221 258 273 139 48 46 288 75 289 265 104 87 68 62 54 43 28 23 14 6 2 356 348 342 341 339 336 335 330 325 320 313 308 309 302 302 307 308 310
234 317 7 266 236 123 179 110 72 76 67 314 122 135 276 125 86 68 58 57 48 35 19 6 4 353 350 344 335 331 328 330 326 327 321 315 307 300 300 296 297 296 299 299
250 269 275 227 280 200 165 86 32 41 111 262 265 176 279 30 79 91 64 50 42 23 15 9 356 349 343 339 340 338 340 334 334 328 319 313 305 299 294 294 293 293 293 296
344 256 261 219 256 213 121 74 352 324 1 233 27 351 348 93 66 82 66 56 42 22 10 359 355 350 344 345 348 345 343 338 335 333 326 316 303 292 285 286 285 287 288 285
178 316 229 296 183 196 190 155 166 230 227 271 314 247 213 104 78 77 83 67 40 22 8 0 354 350 349 349 347 341 344 336 339 335 327 318 300 289 283 278 278 279 279 281
192 250 268 94 108 111 191 134 196 177 131 261 231 90 189 138 77 51 42 45 33 15 9 1 353 355 348 346 343 339 341 339 341 338 329 325 313 307 291 281 274 270 269 270
221 283 255 35 83 20 148 170 62 355 277 260 239 217 224 188 209 17 39 45 23 13 6 352 353 350 344 349 339 345 345 341 335 337 337 333 327 326 322 318 313 312 296 291
133 137 263 57 145 179 10 290 183 187 177 234 291 262 214 184 176 118 67 83 47 22 353 339 342 344 344 345 344 351 351 348 347 346 341 341 341 344 346 352 345 346 340 330
142 141 207 229 276 285 201 229 199 201 241 239 236 258 130 155 144 115 69 31 27 34 339 330 337 345 350 354 352 356 355 355 350 347 342 346 347 360 6 4 3 4 12 7
176 139 21 336 356 28 78 203 183 223 128 213 218 260 165 148 120 105 89 55 23 13 355 345 354 356 359 1 356 359 353 349 349 350 350 355 358 10 12 12 13 16 20 22
87 146 169 220 205 157 250 245 262 194 193 241 217 221 194 185 167 137 114 97 60 25 356 357 3 4 3 2 359 352 352 351 350 354 357 359 1 10 21 17 22 24 24 26
103 192 144 246 238 249 231 254 266 241 244 216 248 209 205 185 159 140 145 130 76 22 11 10 10 1 6 3 359 356 356 356 355 359 3 360 0 8 19 26 25 27 27 26
42 207 93 311 262 249 263 260 251 243 245 241 201 231 149 115 114 140 146 123 103 43 23 19 16 14 12 4 359 351 357 0 360 6 11 4 7 11 19 21 29 29 26 30
141 123 79 270 307 299 279 240 223 219 218 218 226 200 153 151 154 156 146 128 110 70 38 29 19 19 9 0 355 354 359 2 12 14 13 14 13 15 17 24 28 30 29 26
133 121 129 250 353 252 244 228 238 218 231 145 93 141 151 140 108 114 124 136 117 96 66 44 18 13 2 359 1 358 8 15 22 20 19 20 18 19 16 23 30 27 29 29
136 127 168 172 216 277 251 220 185 182 251 160 140 135 125 122 117 107 123 117 116 114 96 50 351 4 358 10 355 2 18 23 24 22 19 21 25 25 21 22 22 24 22 29
125 138 138 169 239 251 242 199 147 124 286 157 145 150 151 157 170 163 148 132 122 121 103 53 2 2 17 356 344 4 16 27 27 13 20 23 26 28 30 25 20 19 26 30
164 194 203 211 242 281 196 150 141 92 246 156 152 157 159 179 333 132 133 129 132 136 117 57 36 29 331 336 352 19 22 29 356 358 24 30 27 33 29 31 31 26 30 32
179 177 188 189 197 256 125 99 174 196 37 149 151 157 139 119 122 127 134 139 139 134 121 75 57 25 353 359 20 26 29 337 351 4 26 21 16 25 21 33 35 36 33 36
197 189 183 184 212 216 263 212 145 142 139 155 143 142 138 137 139 141 147 151 151 148 160 97 100 56 7 357 34 38 358 2 358 22 23 15 15 22 13 29 35 37 35 34
238 186 154 105 213 220 204 53 84 98 121 136 144 146 147 145 148 145 148 150 152 155 160 138 96 66 35 9 30 32 17 10 22 33 24 19 15 21 11 27 39 40 37 34
203 134 144 283 298 49 266 178 138 98 109 111 126 149 148 144 150 150 149 153 155 150 147 134 117 95 59 25 25 12 18 24 27 35 21 19 19 19 29 33 52 49 45 41
184 170 167 221 194 167 221 157 144 133 140 138 134 131 145 146 147 147 151 156 152 136 129 125 108 97 75 53 43 22 27 40 37 47 34 23 24 23 29 26 31 38 52 46